User: anonymous   Login
Location: Bois de la Silve
(44.4667°N, 6.7833°E)
Time: 16:50:45
(UTC+00:00)
Language:

Cosmos 1703 Rocket - Orbit

View from above orbital plane
View from above orbital plane
View from above satellite
View from above satellite

Ground track
Ground track

The orbit data is extracted from the following two-line orbital elements,

1 16263U 85108B   20270.84353177  .00000085  00000-0  74547-5 0  9994
2 16263  82.5021  70.6767 0020227   7.9387 105.6560 14.83107853881895
Epoch (UTC): 26 September 2020 20:14:41
Eccentricity: 0.0020227
inclination: 82.5021°
perigee height: 605 km
apogee height: 633 km
right ascension of ascending node: 70.6767°
argument of perigee: 7.9387°
revolutions per day: 14.83107853
mean anomaly at epoch: 105.6560°
orbit number at epoch: 88189

The dashed part of the orbit path shows where the satellite is in the earth's shadow,  

DLR